FREGAT DEB, 45971

Orbit data source: Space-Track

FREGAT DEB, 45971 is space debris in LEO originally from a launch on Mon, 18 Jul 2011 UTC launched from the Tyuratam Missile And Space Complex (TTMTR). Debris objects in space refer to the collection of defunct objects orbiting the Earth. Examples of debris include non-operational satellites, rocket bodies, and fragments generated from explosions, collisions, or faulty payload assembly.

Loading next visibility...
FREGAT DEB details
Identifier
45971, 2011-037GC
Orbit
LEO
Last TLE update5 days ago
Origin
Flag of CISVVKO VKS (CIS)
ManufacturerLavochkin
MissionSpacecraft
Bus & MotorUnknown
MassUnknown
Launch date (UTC)
2011-07-18 (13 years ago)
Launch vehicleUnknown
Launch site
Tyuratam Missile And Space Complex (TTMTR)
Object type
Payload
Rocket body
Debris
Shape & HBRUnknown
Radar Cross SectionSmall (<0.1 m²)

Expand to show TLE details & history

TLE from 5 days ago
0 FREGAT DEB
1 45971U 11037GC  24334.76524855  .00074090  00000-0  76078-2 0  9996
2 45971  51.4618  93.1712 1270353 201.3194 152.9852 12.72241850195770
Epoch: 2024-11-29T18:21Z
Definitive object data (Epoch: 2024-11-29T18:21:57.474Z)
Latitude-0.00007°
Longitude108.5542°
Altitude2,272.568 km
Speed6.384 km/s
True Right ascension06h 12m 41s
True Declination0° 00' 00"
Sunlit
Object was in full shadow at TLE epoch
Visualization TLE readout
Latitude21.37199°
Longitude109.02991°
Altitude2,342.293 km
Speed6.326 km/s
Apparent Right ascension08h 42m 45s
Apparent Declination-7° 42' 33"
Sunlit
Object is in full shadow
Visualization observer readout
Local Sidereal Time02:32:28
Azimuth94.296° ESE
Elevation-6.902°
Doppler factor1
Orbital elements
Apogee altitude2,358.012 km
Perigee altitude388.598 km
Semi-major axis7,751.442 km
Eccentricity0.1270353
Inclination51.4618°
RAAN93.1712°
Arg. of periapsis201.3194°
True anomaly158.76503°
Mean anomaly152.9852°
Eccentric anomaly155.95132°
Mean motion3.18031 °/min
BSTAR0.0076078
Orbital period113.2 mins
Loading maneuver chart data...
Loading historical data...
Loading historical data...
Loading historical data...
Loading historical data...
Loading historical data...
Loading historical data...
Loading historical data...

FREGAT DEB Visibility forecast

Observer location: undefined°, undefined

Span
Click to sort rows by Start time (UTC) header in descending order
Start Az.
Max El. time (UTC)
Max El. Az.
Max El.
End time (UTC)
End Az.
13 mins2024-12-05 06:23:02.951Z142.96° SSE2024-12-05 06:30:02.951Z111.623° ESE15.567°2024-12-05 06:36:02.951Z84.844° E
23 mins2024-12-05 08:16:02.951Z198.293° SSW2024-12-05 08:28:02.951Z124.038° SE39.04°2024-12-05 08:39:02.951Z59.707° ENE
24 mins2024-12-05 10:15:02.951Z243.911° WSW2024-12-05 10:28:02.951Z344.006° N43.819°2024-12-05 10:39:02.951Z53.555° ENE
21 mins2024-12-05 12:17:02.951Z280.277° WNW2024-12-05 12:29:02.951Z351.739° N36.435°2024-12-05 12:38:02.951Z61.453° ENE
17 mins2024-12-05 14:20:02.951Z303.392° NW2024-12-05 14:30:02.951Z9.745° NNE37.555°2024-12-05 14:37:02.951Z86.948° E
14 mins2024-12-05 16:21:02.951Z304.934° NW2024-12-05 16:30:02.951Z213.795° SW44.046°2024-12-05 16:35:02.951Z139.597° SSE
5 mins2024-12-05 18:24:02.951Z268.355° W2024-12-05 18:26:02.951Z251.228° W13.516°2024-12-05 18:29:02.951Z221.074° SW
|